VORF Weather Reports


Display with metric or nautical units.
time (UTC)temp
F
wind
direction
speed
MPH
gust
MPH
rain 1hr
in
rain 24hr
in
rain mn
in
humidity
%
barometer
mb
20260504011543 65 221 4.0 8.0 0.00 0.00 0.00 51 1004.8
20260504010048 66 219 5.0 10.0 0.00 0.00 0.00 50 1004.9
20260504004546 66 234 3.0 14.0 0.00 0.00 0.00 49 1004.9
20260504003048 67 268 5.0 15.0 0.00 0.00 0.00 48 1004.8
20260504001547 67 242 5.0 15.0 0.00 0.00 0.00 46 1004.8
20260504000041 68 277 6.0 16.0 0.00 0.00 0.00 45 1004.7
20260503234549 69 299 5.0 21.0 0.00 0.00 0.00 44 1004.8
20260503233040 69 263 7.0 17.0 0.00 0.00 0.00 43 1004.8
20260503231543 69 185 6.0 15.0 0.00 0.00 0.00 43 1004.8
20260503230044 68 244 3.0 13.0 0.00 0.00 0.00 43 1005.0
20260503224542 69 229 7.0 19.0 0.00 0.00 0.00 42 1005.2
20260503223044 68 166 7.0 19.0 0.00 0.00 0.00 43 1005.3
20260503221558 68 244 5.0 20.0 0.00 0.00 0.00 43 1005.6
20260503220043 67 241 7.0 18.0 0.00 0.00 0.00 42 1005.7
20260503214545 67 213 10.0 24.0 0.00 0.00 0.00 42 1006.0
20260503213046 67 290 11.0 21.0 0.00 0.00 0.00 42 1006.4
20260503211544 67 209 6.0 19.0 0.00 0.00 0.00 41 1006.5
20260503210042 66 232 7.0 18.0 0.00 0.00 0.00 41 1006.7
20260503204606 67 171 7.0 19.0 0.00 0.00 0.00 40 1006.9
20260503203045 65 254 8.0 24.0 0.00 0.00 0.00 41 1007.2
20260503201549 66 184 8.0 25.0 0.00 0.00 0.00 42 1007.4
20260503200046 65 263 9.0 25.0 0.00 0.00 0.00 45 1007.7
20260503194546 64 234 9.0 20.0 0.00 0.00 0.00 48 1007.9
20260503193047 62 194 8.0 22.0 0.00 0.00 0.00 52 1008.0
20260503191604 60 203 9.0 26.0 0.00 0.00 0.00 55 1008.4
20260503190042 59 136 6.0 19.0 0.00 0.00 0.00 56 1008.5
20260503184544 57 157 8.0 18.0 0.00 0.00 0.00 59 1008.9
20260503183042 56 178 7.0 18.0 0.00 0.00 0.00 62 1009.3
20260503181550 55 163 8.0 18.0 0.00 0.00 0.00 63 1009.7
20260503180049 54 198 6.0 16.0 0.00 0.00 0.00 65 1010.4
20260503174548 54 193 7.0 15.0 0.00 0.00 0.00 66 1011.1
20260503173045 53 240 7.0 17.0 0.00 0.00 0.00 68 1011.7
20260503171545 52 200 7.0 19.0 0.00 0.00 0.00 70 1011.8
20260503081543 46 246 3.0 8.0 0.00 0.00 0.00 56 1013.8
20260503071549 46 233 3.0 8.0 0.00 0.00 0.00 55 1014.0
20260503054604 46 187 2.0 5.0 0.00 0.00 0.00 56 1014.7
20260503053042 46 212 2.0 5.0 0.00 0.00 0.00 55 1014.9
20260503051542 47 192 2.0 4.0 0.00 0.00 0.00 55 1015.0
20260503050049 47 242 1.0 4.0 0.00 0.00 0.00 55 1015.0
20260503044548 47 242 1.0 4.0 0.00 0.00 0.00 55 1015.1
20260503043053 47 225 1.0 4.0 0.00 0.00 0.00 55 1015.1
20260503041544 47 247 1.0 4.0 0.00 0.00 0.00 55 1015.2
20260503040046 47 235 1.0 3.0 0.00 0.00 0.00 55 1015.2
20260503034547 48 215 1.0 3.0 0.00 0.00 0.00 54 1015.3
20260503033041 48 218 1.0 3.0 0.00 0.00 0.00 53 1015.3
20260503031544 49 205 1.0 5.0 0.00 0.00 0.00 52 1015.4
20260503030041 49 186 1.0 3.0 0.00 0.00 0.00 51 1015.4
20260503024543 49 229 1.0 3.0 0.00 0.00 0.00 50 1015.5
20260503023046 50 230 1.0 4.0 0.00 0.00 0.00 49 1015.6
20260503021547 50 234 1.0 3.0 0.00 0.00 0.00 49 1015.6
20260503020045 50 219 0.0 2.0 0.00 0.00 0.00 49 1015.5
20260503014551 50 219 0.0 2.0 0.00 0.00 0.00 48 1015.4
20260503013044 51 0 0.0 1.0 0.00 0.00 0.00 47 1015.3